Voltar ao catálogo

STARLINK-3884

AtivoComunicaçõesVLEO
NORAD 52497·PAYLOAD·🇺🇸 United States

Lançado May 6, 2022 de Cape Canaveral Space Force Station

Loading…

Próximas Passagens (próximas 24 horas)

TLE

AtualizadoSource: CelesTrak SupGP

Época: Sep 14, 2026, 21:30 UTC

1 52497C 22049AY  26257.89631944  .00048456  00000+0  14705-2 0  2572
2 52497  53.1580 270.2515 0001204  84.9828 311.9484 15.33521855    18

Acompanhe STARLINK-3884 em tempo real com AllMySat

Download on the App Store